sat.trackr.live / text

‹ back to catalog

CENTAURI-7

NORAD 62708 · 2025-009DD

PAYLOAD ACTIVE UNKNOWN

§ Identity

Operator
Country
AUS
Launch date
2025-01-14
Launch site
AFWTR
Launch vehicle
Mass (kg)
RCS (m²)

External: N2YO · Heavens-Above · Gunter

§ Orbital elements

Epoch: 2026-09-22T10:43:05.891808Z

Period
96.11 min
Inclination
97.7048°
Eccentricity
0.0001490
Mean motion
14.98342208 rev/d
Perigee alt
571.0 km
Apogee alt
573.1 km
Semi-major
6,950.2 km
B*
2.5542e-4
RAAN
344.4899°
Arg perigee
109.5011°
Mean anomaly
250.6372°
Rev number
9,202

§ Raw data

CENTAURI-71 62708U 25009DD  26265.44659597  .00002984  00000+0  25542-3 0  99922 62708  97.7048 344.4899 0001490 109.5011 250.6372 14.98342208 92021

JSON: /api/v1/satellites/62708 · /tle

For live sub-satellite position, see the globe view (requires WebGL).

§ Visibility from observer

Set your observer location to see the next 7 days of passes ≥ 10°. The values pass through the URL so the page stays shareable.

No JS? Fill the form by hand. The geolocation button needs JavaScript.

§ Radio — SatNOGS DB

ModeDescriptionDownlinkUplink
FSK Mode U - FSK9k6 - Transmitter 400.220 MHz
BPSK S-band telemetry 2.255 GHz

2 transmitters · refreshed weekly from db.satnogs.org